Time,TemperatureF,DewpointF,PressureIn,WindDirection,WindDirectionDegrees,WindSpeedMPH,WindSpeedGustMPH,Humidity,HourlyPrecipIn,Conditions,Clouds,dailyrainin,SoftwareType,DateUTC
2013-09-14 10:00:00,86.5,71.0,29.99,NE,45,8.0,-999.0,60,0.00,,,0.00,Wunderground v.1.15,2013-09-14 20:00:00,
2013-09-14 10:05:00,86.5,71.0,29.99,NE,45,8.0,-999.0,60,0.00,,,0.00,Wunderground v.1.15,2013-09-14 20:05:00,
2013-09-14 10:10:00,86.5,71.0,29.99,NE,45,8.0,-999.0,60,0.00,,,0.00,Wunderground v.1.15,2013-09-14 20:10:00,
2013-09-14 10:15:00,87.8,70.7,29.99,NE,45,8.0,-999.0,57,0.00,,,0.00,Wunderground v.1.15,2013-09-14 20:15:00,
2013-09-14 10:20:00,87.8,70.7,29.99,NE,45,8.0,-999.0,57,0.00,,,0.00,Wunderground v.1.15,2013-09-14 20:20:00,
2013-09-14 10:25:00,87.8,70.7,29.99,NE,45,8.0,-999.0,57,0.00,,,0.00,Wunderground v.1.15,2013-09-14 20:25:00,
2013-09-14 10:30:00,87.8,70.7,29.99,NE,45,8.0,-999.0,57,0.00,,,0.00,Wunderground v.1.15,2013-09-14 20:30:00,
2013-09-14 10:35:00,87.8,70.7,29.99,NE,45,8.0,-999.0,57,0.00,,,0.00,Wunderground v.1.15,2013-09-14 20:35:00,
2013-09-14 10:40:00,87.8,70.7,29.99,NE,45,8.0,-999.0,57,0.00,,,0.00,Wunderground v.1.15,2013-09-14 20:40:00,
2013-09-14 10:45:00,89.1,71.4,29.98,NE,45,7.0,-999.0,56,0.00,,,0.00,Wunderground v.1.15,2013-09-14 20:45:00,
2013-09-14 10:50:00,89.1,71.4,29.98,NE,45,7.0,-999.0,56,0.00,,,0.00,Wunderground v.1.15,2013-09-14 20:50:00,
2013-09-14 10:55:00,89.1,71.4,29.98,NE,45,7.0,-999.0,56,0.00,,,0.00,Wunderground v.1.15,2013-09-14 20:55:00,
2013-09-14 11:00:00,89.1,71.4,29.98,NE,45,7.0,-999.0,56,0.00,,,0.00,Wunderground v.1.15,2013-09-14 21:00:00,
2013-09-14 11:05:00,89.1,71.4,29.98,NE,45,7.0,-999.0,56,0.00,,,0.00,Wunderground v.1.15,2013-09-14 21:05:00,
2013-09-14 11:10:00,89.1,71.4,29.98,NE,45,7.0,-999.0,56,0.00,,,0.00,Wunderground v.1.15,2013-09-14 21:10:00,
2013-09-14 11:15:00,90.6,71.7,29.97,NE,45,7.0,-999.0,54,0.00,,,0.00,Wunderground v.1.15,2013-09-14 21:15:00,
2013-09-14 11:20:00,90.6,71.7,29.97,NE,45,7.0,-999.0,54,0.00,,,0.00,Wunderground v.1.15,2013-09-14 21:20:00,
2013-09-14 11:25:00,90.6,71.7,29.97,NE,45,7.0,-999.0,54,0.00,,,0.00,Wunderground v.1.15,2013-09-14 21:25:00,
2013-09-14 11:30:00,90.6,71.7,29.97,NE,45,7.0,-999.0,54,0.00,,,0.00,Wunderground v.1.15,2013-09-14 21:30:00,
2013-09-14 11:35:00,90.6,71.7,29.97,NE,45,7.0,-999.0,54,0.00,,,0.00,Wunderground v.1.15,2013-09-14 21:35:00,
2013-09-14 11:40:00,90.6,71.7,29.97,NE,45,7.0,-999.0,54,0.00,,,0.00,Wunderground v.1.15,2013-09-14 21:40:00,
2013-09-14 11:45:00,90.4,72.0,29.96,NE,45,9.0,-999.0,55,0.00,,,0.00,Wunderground v.1.15,2013-09-14 21:45:00,
2013-09-14 11:50:00,90.4,72.0,29.96,NE,45,9.0,-999.0,55,0.00,,,0.00,Wunderground v.1.15,2013-09-14 21:50:00,
2013-09-14 11:55:00,90.4,72.0,29.96,NE,45,9.0,-999.0,55,0.00,,,0.00,Wunderground v.1.15,2013-09-14 21:55:00,
2013-09-14 12:00:00,90.4,72.0,29.96,NE,45,9.0,-999.0,55,0.00,,,0.00,Wunderground v.1.15,2013-09-14 22:00:00,
2013-09-14 12:05:00,90.4,72.0,29.96,NE,45,9.0,-999.0,55,0.00,,,0.00,Wunderground v.1.15,2013-09-14 22:05:00,
2013-09-14 12:10:00,90.4,72.0,29.96,NE,45,9.0,-999.0,55,0.00,,,0.00,Wunderground v.1.15,2013-09-14 22:10:00,
2013-09-14 12:15:00,89.9,73.1,29.95,NE,45,8.0,-999.0,58,0.00,,,0.00,Wunderground v.1.15,2013-09-14 22:15:00,
2013-09-14 12:20:00,89.9,73.1,29.95,NE,45,8.0,-999.0,58,0.00,,,0.00,Wunderground v.1.15,2013-09-14 22:20:00,
2013-09-14 12:25:00,89.9,73.1,29.95,NE,45,8.0,-999.0,58,0.00,,,0.00,Wunderground v.1.15,2013-09-14 22:25:00,
2013-09-14 12:30:00,89.9,73.1,29.95,NE,45,8.0,-999.0,58,0.00,,,0.00,Wunderground v.1.15,2013-09-14 22:30:00,
2013-09-14 12:35:00,89.9,73.1,29.95,NE,45,8.0,-999.0,58,0.00,,,0.00,Wunderground v.1.15,2013-09-14 22:35:00,
2013-09-14 12:40:00,89.9,73.1,29.95,NE,45,8.0,-999.0,58,0.00,,,0.00,Wunderground v.1.15,2013-09-14 22:40:00,
2013-09-14 12:45:00,89.0,72.8,29.95,NE,45,8.0,-999.0,59,0.00,,,0.00,Wunderground v.1.15,2013-09-14 22:45:00,
2013-09-14 12:50:00,89.0,72.8,29.95,NE,45,8.0,-999.0,59,0.00,,,0.00,Wunderground v.1.15,2013-09-14 22:50:00,
2013-09-14 12:55:00,89.0,72.8,29.95,NE,45,8.0,-999.0,59,0.00,,,0.00,Wunderground v.1.15,2013-09-14 22:55:00,
2013-09-14 13:00:00,89.0,72.8,29.95,NE,45,8.0,-999.0,59,0.00,,,0.00,Wunderground v.1.15,2013-09-14 23:00:00,
2013-09-14 13:05:00,89.0,72.8,29.95,NE,45,8.0,-999.0,59,0.00,,,0.00,Wunderground v.1.15,2013-09-14 23:05:00,
2013-09-14 13:10:00,89.0,72.8,29.95,NE,45,8.0,-999.0,59,0.00,,,0.00,Wunderground v.1.15,2013-09-14 23:10:00,
2013-09-14 13:15:00,89.5,70.7,29.93,NE,45,7.0,-999.0,54,0.00,,,0.00,Wunderground v.1.15,2013-09-14 23:15:00,
2013-09-14 13:20:00,89.5,70.7,29.93,NE,45,7.0,-999.0,54,0.00,,,0.00,Wunderground v.1.15,2013-09-14 23:20:00,
2013-09-14 13:25:00,89.5,70.7,29.93,NE,45,7.0,-999.0,54,0.00,,,0.00,Wunderground v.1.15,2013-09-14 23:25:00,
2013-09-14 13:30:00,89.5,70.7,29.93,NE,45,7.0,-999.0,54,0.00,,,0.00,Wunderground v.1.15,2013-09-14 23:30:00,
2013-09-14 13:35:00,89.5,70.7,29.93,NE,45,7.0,-999.0,54,0.00,,,0.00,Wunderground v.1.15,2013-09-14 23:35:00,
2013-09-14 13:40:00,89.5,70.7,29.93,NE,45,7.0,-999.0,54,0.00,,,0.00,Wunderground v.1.15,2013-09-14 23:40:00,
2013-09-14 13:45:00,89.0,71.3,29.93,NE,45,6.0,-999.0,56,0.00,,,0.00,Wunderground v.1.15,2013-09-14 23:45:00,
2013-09-14 13:50:00,89.0,71.3,29.93,NE,45,6.0,-999.0,56,0.00,,,0.00,Wunderground v.1.15,2013-09-14 23:50:00,
2013-09-14 13:55:00,89.0,71.3,29.93,NE,45,6.0,-999.0,56,0.00,,,0.00,Wunderground v.1.15,2013-09-14 23:55:00,
2013-09-14 14:00:00,89.0,71.3,29.93,NE,45,6.0,-999.0,56,0.00,,,0.00,Wunderground v.1.15,2013-09-15 00:00:00,
2013-09-14 14:05:00,89.0,71.3,29.93,NE,45,6.0,-999.0,56,0.00,,,0.00,Wunderground v.1.15,2013-09-15 00:05:00,
2013-09-14 14:10:00,89.0,71.3,29.93,NE,45,6.0,-999.0,56,0.00,,,0.00,Wunderground v.1.15,2013-09-15 00:10:00,
2013-09-14 14:15:00,88.0,69.8,29.92,NE,45,6.0,-999.0,55,0.00,,,0.00,Wunderground v.1.15,2013-09-15 00:15:00,
2013-09-14 14:20:00,88.0,69.8,29.92,NE,45,6.0,-999.0,55,0.00,,,0.00,Wunderground v.1.15,2013-09-15 00:20:00,
2013-09-14 14:25:00,88.0,69.8,29.92,NE,45,6.0,-999.0,55,0.00,,,0.00,Wunderground v.1.15,2013-09-15 00:25:00,
2013-09-14 14:30:00,88.0,69.8,29.92,NE,45,6.0,-999.0,55,0.00,,,0.00,Wunderground v.1.15,2013-09-15 00:30:00,
2013-09-14 14:35:00,88.0,69.8,29.92,NE,45,6.0,-999.0,55,0.00,,,0.00,Wunderground v.1.15,2013-09-15 00:35:00,
2013-09-14 14:40:00,88.0,69.8,29.92,NE,45,6.0,-999.0,55,0.00,,,0.00,Wunderground v.1.15,2013-09-15 00:40:00,
2013-09-14 14:45:00,90.5,70.5,29.92,NE,45,7.0,-999.0,52,0.00,,,0.00,Wunderground v.1.15,2013-09-15 00:45:00,
2013-09-14 14:50:00,90.5,70.5,29.92,NE,45,7.0,-999.0,52,0.00,,,0.00,Wunderground v.1.15,2013-09-15 00:50:00,
2013-09-14 14:55:00,90.5,70.5,29.92,NE,45,7.0,-999.0,52,0.00,,,0.00,Wunderground v.1.15,2013-09-15 00:55:00,
2013-09-14 15:00:00,90.5,70.5,29.92,NE,45,7.0,-999.0,52,0.00,,,0.00,Wunderground v.1.15,2013-09-15 01:00:00,
2013-09-14 15:05:00,90.5,70.5,29.92,NE,45,7.0,-999.0,52,0.00,,,0.00,Wunderground v.1.15,2013-09-15 01:05:00,
2013-09-14 15:10:00,90.5,70.5,29.92,NE,45,7.0,-999.0,52,0.00,,,0.00,Wunderground v.1.15,2013-09-15 01:10:00,
2013-09-14 15:15:00,90.3,71.9,29.92,NE,45,8.0,-999.0,55,0.00,,,0.00,Wunderground v.1.15,2013-09-15 01:15:00,
2013-09-14 15:20:00,90.3,71.9,29.92,NE,45,8.0,-999.0,55,0.00,,,0.00,Wunderground v.1.15,2013-09-15 01:20:00,
2013-09-14 15:25:00,90.3,71.9,29.92,NE,45,8.0,-999.0,55,0.00,,,0.00,Wunderground v.1.15,2013-09-15 01:25:00,
2013-09-14 15:30:00,90.3,71.9,29.92,NE,45,8.0,-999.0,55,0.00,,,0.00,Wunderground v.1.15,2013-09-15 01:30:00,
2013-09-14 15:35:00,90.3,71.9,29.92,NE,45,8.0,-999.0,55,0.00,,,0.00,Wunderground v.1.15,2013-09-15 01:35:00,
2013-09-14 15:40:00,90.3,71.9,29.92,NE,45,8.0,-999.0,55,0.00,,,0.00,Wunderground v.1.15,2013-09-15 01:40:00,
2013-09-14 15:45:00,89.3,71.5,29.93,NE,45,7.0,-999.0,56,0.00,,,0.00,Wunderground v.1.15,2013-09-15 01:45:00,
2013-09-14 15:50:00,89.3,71.5,29.93,NE,45,7.0,-999.0,56,0.00,,,0.00,Wunderground v.1.15,2013-09-15 01:50:00,
2013-09-14 15:55:00,89.3,71.5,29.93,NE,45,7.0,-999.0,56,0.00,,,0.00,Wunderground v.1.15,2013-09-15 01:55:00,
2013-09-14 16:00:00,89.3,71.5,29.93,NE,45,7.0,-999.0,56,0.00,,,0.00,Wunderground v.1.15,2013-09-15 02:00:00,
2013-09-14 16:05:00,89.3,71.5,29.93,NE,45,7.0,-999.0,56,0.00,,,0.00,Wunderground v.1.15,2013-09-15 02:05:00,
2013-09-14 16:10:00,89.3,71.5,29.93,NE,45,7.0,-999.0,56,0.00,,,0.00,Wunderground v.1.15,2013-09-15 02:10:00,
2013-09-14 16:15:00,88.9,72.2,29.93,NE,45,7.0,-999.0,58,0.00,,,0.00,Wunderground v.1.15,2013-09-15 02:15:00,
2013-09-14 16:20:00,88.9,72.2,29.93,NE,45,7.0,-999.0,58,0.00,,,0.00,Wunderground v.1.15,2013-09-15 02:20:00,
2013-09-14 16:25:00,88.9,72.2,29.93,NE,45,7.0,-999.0,58,0.00,,,0.00,Wunderground v.1.15,2013-09-15 02:25:00,
2013-09-14 16:30:00,88.9,72.2,29.93,NE,45,7.0,-999.0,58,0.00,,,0.00,Wunderground v.1.15,2013-09-15 02:30:00,
2013-09-14 16:35:00,88.9,72.2,29.93,NE,45,7.0,-999.0,58,0.00,,,0.00,Wunderground v.1.15,2013-09-15 02:35:00,
2013-09-14 16:40:00,88.9,72.2,29.93,NE,45,7.0,-999.0,58,0.00,,,0.00,Wunderground v.1.15,2013-09-15 02:40:00,
2013-09-14 16:45:00,88.2,72.1,29.94,NE,45,6.0,-999.0,59,0.00,,,0.00,Wunderground v.1.15,2013-09-15 02:45:00,
2013-09-14 16:50:00,88.2,72.1,29.94,NE,45,6.0,-999.0,59,0.00,,,0.00,Wunderground v.1.15,2013-09-15 02:50:00,
2013-09-14 16:55:00,88.2,72.1,29.94,NE,45,6.0,-999.0,59,0.00,,,0.00,Wunderground v.1.15,2013-09-15 02:55:00,
2013-09-14 17:00:00,88.2,72.1,29.94,NE,45,6.0,-999.0,59,0.00,,,0.00,Wunderground v.1.15,2013-09-15 03:00:00,
2013-09-14 17:05:00,88.2,72.1,29.94,NE,45,6.0,-999.0,59,0.00,,,0.00,Wunderground v.1.15,2013-09-15 03:05:00,
2013-09-14 17:10:00,88.2,72.1,29.94,NE,45,6.0,-999.0,59,0.00,,,0.00,Wunderground v.1.15,2013-09-15 03:10:00,
2013-09-14 17:15:00,87.0,72.9,29.95,NE,45,6.0,-999.0,63,0.00,,,0.00,Wunderground v.1.15,2013-09-15 03:15:00,
2013-09-14 17:20:00,87.0,72.9,29.95,NE,45,6.0,-999.0,63,0.00,,,0.00,Wunderground v.1.15,2013-09-15 03:20:00,
2013-09-14 17:25:00,87.0,72.9,29.95,NE,45,6.0,-999.0,63,0.00,,,0.00,Wunderground v.1.15,2013-09-15 03:25:00,
2013-09-14 17:30:00,87.0,72.9,29.95,NE,45,6.0,-999.0,63,0.00,,,0.00,Wunderground v.1.15,2013-09-15 03:30:00,
2013-09-14 17:35:00,87.0,72.9,29.95,NE,45,6.0,-999.0,63,0.00,,,0.00,Wunderground v.1.15,2013-09-15 03:35:00,
2013-09-14 17:40:00,87.0,72.9,29.95,NE,45,6.0,-999.0,63,0.00,,,0.00,Wunderground v.1.15,2013-09-15 03:40:00,
2013-09-14 17:45:00,84.9,73.2,29.96,NE,45,5.0,-999.0,68,0.00,,,0.00,Wunderground v.1.15,2013-09-15 03:45:00,
2013-09-14 17:50:00,84.9,73.2,29.96,NE,45,5.0,-999.0,68,0.00,,,0.00,Wunderground v.1.15,2013-09-15 03:50:00,
2013-09-14 17:55:00,84.9,73.2,29.96,NE,45,5.0,-999.0,68,0.00,,,0.00,Wunderground v.1.15,2013-09-15 03:55:00,
2013-09-14 18:00:00,84.9,73.2,29.96,NE,45,5.0,-999.0,68,0.00,,,0.00,Wunderground v.1.15,2013-09-15 04:00:00,
2013-09-14 18:05:00,84.9,73.2,29.96,NE,45,5.0,-999.0,68,0.00,,,0.00,Wunderground v.1.15,2013-09-15 04:05:00,
2013-09-14 18:10:00,84.9,73.2,29.96,NE,45,5.0,-999.0,68,0.00,,,0.00,Wunderground v.1.15,2013-09-15 04:10:00,
2013-09-14 18:15:00,82.5,73.0,29.96,NE,45,4.0,-999.0,73,0.00,,,0.00,Wunderground v.1.15,2013-09-15 04:15:00,
2013-09-14 18:20:00,82.5,73.0,29.96,NE,45,4.0,-999.0,73,0.00,,,0.00,Wunderground v.1.15,2013-09-15 04:20:00,
2013-09-14 18:25:00,82.5,73.0,29.96,NE,45,4.0,-999.0,73,0.00,,,0.00,Wunderground v.1.15,2013-09-15 04:25:00,
2013-09-14 18:30:00,82.5,73.0,29.96,NE,45,4.0,-999.0,73,0.00,,,0.00,Wunderground v.1.15,2013-09-15 04:30:00,
2013-09-14 18:35:00,82.5,73.0,29.96,NE,45,4.0,-999.0,73,0.00,,,0.00,Wunderground v.1.15,2013-09-15 04:35:00,
2013-09-14 18:40:00,82.5,73.0,29.96,NE,45,4.0,-999.0,73,0.00,,,0.00,Wunderground v.1.15,2013-09-15 04:40:00,
2013-09-14 18:45:00,80.2,72.7,29.97,NE,45,3.0,-999.0,78,0.00,,,0.00,Wunderground v.1.15,2013-09-15 04:45:00,
2013-09-14 18:50:00,80.2,72.7,29.97,NE,45,3.0,-999.0,78,0.00,,,0.00,Wunderground v.1.15,2013-09-15 04:50:00,
2013-09-14 18:55:00,80.2,72.7,29.97,NE,45,3.0,-999.0,78,0.00,,,0.00,Wunderground v.1.15,2013-09-15 04:55:00,
2013-09-14 19:00:00,80.2,72.7,29.97,NE,45,3.0,-999.0,78,0.00,,,0.00,Wunderground v.1.15,2013-09-15 05:00:00,
2013-09-14 19:05:00,80.2,72.7,29.97,NE,45,3.0,-999.0,78,0.00,,,0.00,Wunderground v.1.15,2013-09-15 05:05:00,
2013-09-14 19:10:00,80.2,72.7,29.97,NE,45,3.0,-999.0,78,0.00,,,0.00,Wunderground v.1.15,2013-09-15 05:10:00,
2013-09-14 19:15:00,78.7,72.4,29.98,NE,45,3.0,-999.0,81,0.00,,,0.00,Wunderground v.1.15,2013-09-15 05:15:00,
2013-09-14 19:20:00,78.7,72.4,29.98,NE,45,3.0,-999.0,81,0.00,,,0.00,Wunderground v.1.15,2013-09-15 05:20:00,
2013-09-14 19:25:00,78.7,72.4,29.98,NE,45,3.0,-999.0,81,0.00,,,0.00,Wunderground v.1.15,2013-09-15 05:25:00,
2013-09-14 19:30:00,78.7,72.4,29.98,NE,45,3.0,-999.0,81,0.00,,,0.00,Wunderground v.1.15,2013-09-15 05:30:00,
2013-09-14 19:35:00,78.7,72.4,29.98,NE,45,3.0,-999.0,81,0.00,,,0.00,Wunderground v.1.15,2013-09-15 05:35:00,
2013-09-14 19:40:00,78.7,72.4,29.98,NE,45,3.0,-999.0,81,0.00,,,0.00,Wunderground v.1.15,2013-09-15 05:40:00,
2013-09-14 19:45:00,78.0,72.1,29.99,NE,45,3.0,-999.0,82,0.00,,,0.00,Wunderground v.1.15,2013-09-15 05:45:00,
2013-09-14 19:50:00,78.0,72.1,29.99,NE,45,3.0,-999.0,82,0.00,,,0.00,Wunderground v.1.15,2013-09-15 05:50:00,
2013-09-14 19:55:00,78.0,72.1,29.99,NE,45,3.0,-999.0,82,0.00,,,0.00,Wunderground v.1.15,2013-09-15 05:55:00,
2013-09-14 20:00:00,78.0,72.1,29.99,NE,45,3.0,-999.0,82,0.00,,,0.00,Wunderground v.1.15,2013-09-15 06:00:00,
2013-09-14 20:05:00,78.0,72.1,29.99,NE,45,3.0,-999.0,82,0.00,,,0.00,Wunderground v.1.15,2013-09-15 06:05:00,
2013-09-14 20:10:00,78.0,72.1,29.99,NE,45,3.0,-999.0,82,0.00,,,0.00,Wunderground v.1.15,2013-09-15 06:10:00,
2013-09-14 20:15:00,77.5,71.6,30.00,NE,45,1.0,-999.0,82,0.00,,,0.00,Wunderground v.1.15,2013-09-15 06:15:00,
2013-09-14 20:20:00,77.5,71.6,30.00,NE,45,1.0,-999.0,82,0.00,,,0.00,Wunderground v.1.15,2013-09-15 06:20:00,
2013-09-14 20:25:00,77.5,71.6,30.00,NE,45,1.0,-999.0,82,0.00,,,0.00,Wunderground v.1.15,2013-09-15 06:25:00,
2013-09-14 20:30:00,77.5,71.6,30.00,NE,45,1.0,-999.0,82,0.00,,,0.00,Wunderground v.1.15,2013-09-15 06:30:00,
2013-09-14 20:35:00,77.5,71.6,30.00,NE,45,1.0,-999.0,82,0.00,,,0.00,Wunderground v.1.15,2013-09-15 06:35:00,
2013-09-14 20:40:00,77.5,71.6,30.00,NE,45,1.0,-999.0,82,0.00,,,0.00,Wunderground v.1.15,2013-09-15 06:40:00,
2013-09-14 20:45:00,76.7,70.4,30.00,NE,45,1.0,-999.0,81,0.00,,,0.00,Wunderground v.1.15,2013-09-15 06:45:00,
2013-09-14 20:50:00,76.7,70.4,30.00,NE,45,1.0,-999.0,81,0.00,,,0.00,Wunderground v.1.15,2013-09-15 06:50:00,
2013-09-14 20:55:00,76.7,70.4,30.00,NE,45,1.0,-999.0,81,0.00,,,0.00,Wunderground v.1.15,2013-09-15 06:55:00,
2013-09-14 21:00:00,76.7,70.4,30.00,NE,45,1.0,-999.0,81,0.00,,,0.00,Wunderground v.1.15,2013-09-15 07:00:00,
2013-09-14 21:05:00,76.7,70.4,30.00,NE,45,1.0,-999.0,81,0.00,,,0.00,Wunderground v.1.15,2013-09-15 07:05:00,
2013-09-14 21:10:00,76.7,70.4,30.00,NE,45,1.0,-999.0,81,0.00,,,0.00,Wunderground v.1.15,2013-09-15 07:10:00,
2013-09-14 21:15:00,76.7,70.8,30.01,NE,45,1.0,-999.0,82,0.00,,,0.00,Wunderground v.1.15,2013-09-15 07:15:00,
2013-09-14 21:20:00,76.7,70.8,30.01,NE,45,1.0,-999.0,82,0.00,,,0.00,Wunderground v.1.15,2013-09-15 07:20:00,
2013-09-14 21:25:00,76.7,70.8,30.01,NE,45,1.0,-999.0,82,0.00,,,0.00,Wunderground v.1.15,2013-09-15 07:25:00,
2013-09-14 21:30:00,76.7,70.8,30.01,NE,45,1.0,-999.0,82,0.00,,,0.00,Wunderground v.1.15,2013-09-15 07:30:00,
2013-09-14 21:35:00,76.7,70.8,30.01,NE,45,1.0,-999.0,82,0.00,,,0.00,Wunderground v.1.15,2013-09-15 07:35:00,
2013-09-14 21:40:00,76.7,70.8,30.01,NE,45,1.0,-999.0,82,0.00,,,0.00,Wunderground v.1.15,2013-09-15 07:40:00,
2013-09-14 21:45:00,76.5,70.9,30.01,NE,45,1.0,-999.0,83,0.00,,,0.00,Wunderground v.1.15,2013-09-15 07:45:00,
2013-09-14 21:50:00,76.5,70.9,30.01,NE,45,1.0,-999.0,83,0.00,,,0.00,Wunderground v.1.15,2013-09-15 07:50:00,
2013-09-14 21:55:00,76.5,70.9,30.01,NE,45,1.0,-999.0,83,0.00,,,0.00,Wunderground v.1.15,2013-09-15 07:55:00,
2013-09-14 22:00:00,76.5,70.9,30.01,NE,45,1.0,-999.0,83,0.00,,,0.00,Wunderground v.1.15,2013-09-15 08:00:00,
2013-09-14 22:05:00,76.5,70.9,30.01,NE,45,1.0,-999.0,83,0.00,,,0.00,Wunderground v.1.15,2013-09-15 08:05:00,
2013-09-14 22:10:00,76.5,70.9,30.01,NE,45,1.0,-999.0,83,0.00,,,0.00,Wunderground v.1.15,2013-09-15 08:10:00,
2013-09-14 22:15:00,76.4,71.6,30.01,NE,45,1.0,-999.0,85,0.00,,,0.00,Wunderground v.1.15,2013-09-15 08:15:00,
2013-09-14 22:20:00,76.4,71.6,30.01,NE,45,1.0,-999.0,85,0.00,,,0.00,Wunderground v.1.15,2013-09-15 08:20:00,
2013-09-14 22:25:00,76.4,71.6,30.01,NE,45,1.0,-999.0,85,0.00,,,0.00,Wunderground v.1.15,2013-09-15 08:25:00,
2013-09-14 22:30:00,76.4,71.6,30.01,NE,45,1.0,-999.0,85,0.00,,,0.00,Wunderground v.1.15,2013-09-15 08:30:00,
2013-09-14 22:35:00,76.4,71.6,30.01,NE,45,1.0,-999.0,85,0.00,,,0.00,Wunderground v.1.15,2013-09-15 08:35:00,
2013-09-14 22:40:00,76.4,71.6,30.01,NE,45,1.0,-999.0,85,0.00,,,0.00,Wunderground v.1.15,2013-09-15 08:40:00,
2013-09-14 22:45:00,75.5,70.3,30.00,NE,45,1.0,-999.0,84,0.00,,,0.00,Wunderground v.1.15,2013-09-15 08:45:00,
2013-09-14 22:50:00,75.5,70.3,30.00,NE,45,1.0,-999.0,84,0.00,,,0.00,Wunderground v.1.15,2013-09-15 08:50:00,
2013-09-14 22:55:00,75.5,70.3,30.00,NE,45,1.0,-999.0,84,0.00,,,0.00,Wunderground v.1.15,2013-09-15 08:55:00,
2013-09-14 23:00:00,75.5,70.3,30.00,NE,45,1.0,-999.0,84,0.00,,,0.00,Wunderground v.1.15,2013-09-15 09:00:00,
2013-09-14 23:05:00,75.5,70.3,30.00,NE,45,1.0,-999.0,84,0.00,,,0.00,Wunderground v.1.15,2013-09-15 09:05:00,
2013-09-14 23:10:00,75.5,70.3,30.00,NE,45,1.0,-999.0,84,0.00,,,0.00,Wunderground v.1.15,2013-09-15 09:10:00,
2013-09-14 23:15:00,75.1,71.0,29.99,NE,45,2.0,-999.0,87,0.00,,,0.00,Wunderground v.1.15,2013-09-15 09:15:00,
2013-09-14 23:20:00,75.1,71.0,29.99,NE,45,2.0,-999.0,87,0.00,,,0.00,Wunderground v.1.15,2013-09-15 09:20:00,
2013-09-14 23:25:00,75.1,71.0,29.99,NE,45,2.0,-999.0,87,0.00,,,0.00,Wunderground v.1.15,2013-09-15 09:25:00,
2013-09-14 23:30:00,75.1,71.0,29.99,NE,45,2.0,-999.0,87,0.00,,,0.00,Wunderground v.1.15,2013-09-15 09:30:00,
2013-09-14 23:35:00,75.1,71.0,29.99,NE,45,2.0,-999.0,87,0.00,,,0.00,Wunderground v.1.15,2013-09-15 09:35:00,
2013-09-14 23:40:00,75.1,71.0,29.99,NE,45,2.0,-999.0,87,0.00,,,0.00,Wunderground v.1.15,2013-09-15 09:40:00,
2013-09-14 23:45:00,75.4,71.3,29.99,NE,45,3.0,-999.0,87,0.00,,,0.00,Wunderground v.1.15,2013-09-15 09:45:00,
2013-09-14 23:50:00,75.4,71.3,29.99,NE,45,3.0,-999.0,87,0.00,,,0.00,Wunderground v.1.15,2013-09-15 09:50:00,
2013-09-14 23:55:00,75.4,71.3,29.99,NE,45,3.0,-999.0,87,0.00,,,0.00,Wunderground v.1.15,2013-09-15 09:55:00,